TimeAST,TemperatureF,Dew PointF,Humidity,Sea Level PressureIn,VisibilityMPH,Wind Direction,Wind SpeedMPH,Gust SpeedMPH,PrecipitationIn,Events,Conditions,WindDirDegrees,DateUTC
12:56 AM,75.9,73.9,94,29.87,10.0,Calm,Calm,-,N/A,,Scattered Clouds,0,2011-11-08 04:56:00
1:56 AM,75.9,73.9,94,29.85,10.0,Calm,Calm,-,N/A,,Scattered Clouds,0,2011-11-08 05:56:00
2:56 AM,75.9,73.0,91,29.84,10.0,Calm,Calm,-,N/A,,Scattered Clouds,0,2011-11-08 06:56:00
3:56 AM,75.0,73.0,94,29.83,10.0,West,3.5,-,N/A,,Scattered Clouds,270,2011-11-08 07:56:00
4:56 AM,75.0,73.0,94,29.83,10.0,Calm,Calm,-,N/A,,Scattered Clouds,0,2011-11-08 08:56:00
5:56 AM,75.9,73.9,94,29.84,10.0,Calm,Calm,-,N/A,,Scattered Clouds,0,2011-11-08 09:56:00
6:56 AM,75.9,73.9,94,29.86,10.0,Calm,Calm,-,N/A,,Scattered Clouds,0,2011-11-08 10:56:00
7:56 AM,77.0,73.9,90,29.88,10.0,Calm,Calm,-,N/A,,Scattered Clouds,0,2011-11-08 11:56:00
8:56 AM,81.0,73.9,79,29.91,10.0,Calm,Calm,-,N/A,,Scattered Clouds,0,2011-11-08 12:56:00
9:56 AM,84.9,73.9,69,29.91,10.0,Calm,Calm,-,N/A,,Scattered Clouds,0,2011-11-08 13:56:00
10:56 AM,84.0,73.9,72,29.89,10.0,North,5.8,-,N/A,,Scattered Clouds,350,2011-11-08 14:56:00
11:56 AM,84.0,75.0,74,29.87,10.0,North,8.1,-,N/A,,Scattered Clouds,350,2011-11-08 15:56:00
12:56 PM,84.0,73.9,72,29.84,10.0,North,6.9,-,N/A,,Scattered Clouds,10,2011-11-08 16:56:00
1:56 PM,82.0,73.9,76,29.83,10.0,ENE,4.6,-,0.00,,Mostly Cloudy,70,2011-11-08 17:56:00
2:56 PM,79.0,75.0,88,29.82,10.0,SSE,8.1,-,0.04,Rain,Light Rain,150,2011-11-08 18:56:00
3:56 PM,78.1,73.9,87,29.81,10.0,Calm,Calm,-,0.02,,Mostly Cloudy,0,2011-11-08 19:56:00
4:56 PM,80.1,73.9,81,29.83,10.0,West,3.5,-,N/A,,Mostly Cloudy,270,2011-11-08 20:56:00
5:56 PM,79.0,75.0,88,29.84,10.0,Calm,Calm,-,N/A,,Mostly Cloudy,0,2011-11-08 21:56:00
6:56 PM,80.1,75.0,85,29.86,10.0,West,3.5,-,N/A,,Scattered Clouds,270,2011-11-08 22:56:00
7:56 PM,80.1,75.0,85,29.87,10.0,West,3.5,-,N/A,,Scattered Clouds,280,2011-11-08 23:56:00
8:56 PM,80.1,75.0,85,29.88,10.0,South,3.5,-,N/A,,Scattered Clouds,170,2011-11-09 00:56:00
9:56 PM,80.1,75.0,85,29.88,10.0,Calm,Calm,-,N/A,,Scattered Clouds,0,2011-11-09 01:56:00
10:56 PM,79.0,75.0,88,29.87,10.0,Calm,Calm,-,N/A,,Scattered Clouds,0,2011-11-09 02:56:00
11:56 PM,78.1,75.0,90,29.87,10.0,Calm,Calm,-,N/A,,Scattered Clouds,0,2011-11-09 03:56:00